[[{"header":{"parameterUnit":"m.s-1","parameterCategory":1,"la1":30.2991,"la2":30.254,"lo1":-89.0895,"lo2":-89.0444,"dy":0.0017,"dx":0.0017,"nx":28,"ny":28,"refTime":"2023-04-22T21:00:00:Z","depth":0,"parameterNumber":2,"parameterNumberName":"U-component_of_WINDS"},"data":[0,0,0,0,0,0,0,0,0,0,0,0,0,0,0,0,0,0,0,0,0,0,0,0,0,0,0,0,0,0,0,0,0,0,0,0,0,0,0,0,0,0,0,0,0,0,0,0,0,0,0,0,0,0,0,0,0,0,-2.9687,-2.9686,0,-2.9686,-2.9686,-2.9686,-2.9543,-2.954,-2.9536,-2.9532,-2.9537,-2.954,-2.9544,0,0,0,0,0,0,0,0,0,0,0,0,0,-2.9568,-2.9571,-2.9687,-2.9686,-2.9686,-2.9686,-2.9686,-2.9686,-2.9544,-2.9539,-2.9535,-2.9531,-2.9535,-2.954,-2.9544,0,0,0,0,0,0,0,0,0,0,0,0,0,-2.9599,-2.9572,-2.9687,-2.9615,-2.9609,-2.9686,-2.9686,-2.9686,-2.9545,-2.9539,-2.9534,-2.9528,-2.9534,-2.9539,-2.9545,-2.9691,0,0,-2.9561,-2.9563,0,0,0,0,0,0,0,0,-2.9597,-2.9603,-2.9626,-2.9621,-2.9613,-2.9609,-2.9645,-2.9688,-2.9546,-2.957,-2.9532,-2.9526,-2.9565,-2.9568,-2.958,-2.9691,-2.9691,-2.9562,-2.9565,-2.9567,-2.9569,0,0,0,0,0,0,0,-2.9595,-2.9603,-2.9686,-2.9626,-2.9619,-2.9585,-2.9583,-2.9653,-2.9599,-2.9567,-2.9557,-2.9558,-2.9561,-2.9575,-2.9579,-2.9691,-2.9561,-2.9566,-2.957,-2.9572,-2.9921,-2.9926,0,0,0,0,0,0,-2.9602,-2.9602,-2.9686,-2.9686,-2.9591,-2.9591,-2.9589,-2.9616,-2.9598,-2.959,-2.9563,-2.9552,-2.9569,-2.9573,-2.9579,-2.9749,-2.9567,-2.9572,-2.9575,-2.9915,-2.9922,-2.9928,0,0,0,0,0,0,-2.9601,-2.9611,-2.9686,-2.9641,-2.9648,-2.9599,-2.9631,-2.9619,-2.9633,-2.9595,-2.9585,-2.9588,-2.9565,-2.9571,-2.9663,-2.9747,-2.9575,-2.958,-2.9907,-2.9917,-2.9925,-3.009,0,0,0,0,0,0,-2.9598,-2.9612,-2.9666,-2.9643,-2.9651,-2.9771,-2.9636,-2.9623,-2.9642,-2.9627,-2.9615,-2.9608,-2.9561,-2.9656,-2.9669,-2.9751,-2.9584,-2.99,-2.9912,-2.9922,-3.0077,-3.0104,-3.0127,0,0,0,0,0,-2.9594,-2.9714,-2.967,-2.9681,-2.9718,-2.9776,-2.978,-2.9722,-2.965,-2.9705,-2.968,-2.9608,-2.9735,-2.9667,-2.968,-2.9765,-2.9894,-2.9908,-2.9921,-3.0066,-3.0099,-3.0126,0,0,0,0,0,0,-2.975,-2.971,-2.966,-2.9776,-2.978,-2.9751,-2.9819,-2.9758,-2.9785,-2.977,-2.9698,-2.9696,-2.98,-2.9791,-2.9716,-2.9905,-2.9802,-2.9819,-2.9908,-2.9938,-2.9962,-2.9964,-2.9588,0,0,0,0,0,-2.9797,-2.9846,-2.9809,-2.9915,-2.9919,-2.9869,-2.9892,-2.9846,-2.9848,-2.985,-2.9832,-2.9838,-2.9878,-2.9907,-2.9943,-3.0074,-3.007,-3.0139,-3.0164,-3.0184,-3.0201,-3.027,-3.03,-2.9973,-2.9973,-2.9972,0,0,-2.9897,-2.9881,-2.9916,-2.9945,-2.9943,-2.9997,-2.9872,-2.9933,-2.9973,-2.986,-2.9945,-2.9932,-2.9934,-3.0046,-3.0095,-3.0042,-3.029,-3.0202,-3.0218,-3.0224,-3.0287,-3.0318,-3.0345,-2.9982,-2.998,-2.9979,0,0,-3.0105,-3.0098,-3.0185,-3.0184,-3.0182,-3.0147,-3.0168,-3.0148,-3.0135,-3.0219,-3.0135,-3.0181,-3.0253,-3.0258,-3.027,-3.0478,-3.0413,-3.0491,-3.0621,-3.0689,-3.0715,-3.0738,-3.0813,-3.0841,-3.0507,-3.0507,-3.0507,0,-3.023,-3.0306,-3.0238,-3.0305,-3.032,-3.0218,-3.0306,-3.0309,-3.032,-3.0334,-3.0274,-3.0361,-3.0355,-3.0467,-3.0518,-3.053,-3.0553,-3.0494,-3.0717,-3.0739,-3.0759,-3.083,-3.0858,-3.0517,-3.0516,-3.0515,-3.0514,0,-3.0459,-3.0513,-3.0584,-3.0594,-3.0617,-3.0695,-3.064,-3.0671,-3.0623,-3.0596,-3.0683,-3.0671,-3.0702,-3.0725,-3.068,-3.0831,-3.0798,-3.0729,-3.0624,-3.0801,-3.0866,-3.0893,-3.0531,-3.0527,-3.0524,-3.0522,0,0,-3.077,-3.0739,-3.0766,-3.0769,-3.0758,-3.0799,-3.0871,-3.09,-3.0929,-3.0939,-3.0999,-3.1061,-3.0996,-3.1009,-3.0963,-3.1023,-3.1189,-3.0945,-3.0944,-3.0993,-3.1356,-3.141,-3.1443,-3.1145,-3.115,-3.1154,-3.1356,0,-3.0973,-3.1094,-3.1034,-3.1163,-3.1213,-3.1114,-3.1178,-3.1178,-3.1154,-3.1192,-3.1165,-3.1211,-3.1121,-3.1128,-3.1183,-3.1158,-3.1261,-3.1142,-3.1202,-3.1205,-3.1207,-3.1477,-3.1534,-3.1726,-3.1381,-3.1386,-3.1389,0,-3.1227,-3.1245,-3.1379,-3.1357,-3.1375,-3.1433,-3.1454,-3.1492,-3.149,-3.1468,-3.1482,-3.1421,-3.1492,-3.1386,-3.1483,-3.1403,-3.1423,-3.1415,-3.1421,-3.1426,-3.131,-3.1491,-3.1786,-3.1816,-3.1428,-3.1425,-3.1422,0,-3.1441,-3.1499,-3.1586,-3.1592,-3.1568,-3.1612,-3.1604,-3.1596,-3.1617,-3.1635,-3.1648,-3.1675,-3.1691,-3.1714,-3.1662,-3.159,-3.1767,-3.1656,-3.1752,-3.1754,-3.1796,-3.1795,-3.21,-3.1806,-3.1806,-3.1805,-3.1805,0,-3.1676,-3.1762,-3.1682,-3.1737,-3.183,-3.176,-3.1855,-3.1837,-3.1831,-3.188,-3.1797,-3.1845,-3.1773,-3.1815,-3.1775,-3.1862,-3.1869,-3.1854,-3.1843,-3.1863,-3.1865,-3.1878,-3.1864,-3.1813,-3.1811,-3.181,-3.1808,0,-3.1933,-3.1883,-3.1972,-3.1941,-3.1935,-3.2006,-3.198,-3.2029,-3.1997,-3.2061,-3.2072,-3.2023,-3.2068,-3.2017,-3.2059,-3.2031,-3.2149,-3.2117,-3.215,-3.2142,-3.2241,-3.2233,-3.2567,-3.2608,-3.2286,-3.2289,-3.2292,0,-3.2087,-3.2151,-3.2126,-3.2152,-3.2149,-3.2193,-3.2212,-3.2145,-3.217,-3.2171,-3.2221,-3.2258,-3.2284,-3.236,-3.2329,-3.236,-3.2329,-3.2444,-3.2334,-3.2352,-3.2333,-3.2331,-3.2338,-3.2468,-3.2472,-3.2475,-3.2477,0,-3.2367,-3.2338,-3.2369,-3.2392,-3.2417,-3.2432,-3.2441,-3.2468,-3.2397,-3.2429,-3.2473,-3.2493,-3.2533,-3.2572,-3.2594,-3.2586,-3.2522,-3.2512,-3.2536,-3.2558,-3.2575,-3.2569,-3.2214,-3.2505,-3.2502,-3.25,-3.2499,-3.2498,-3.2578,-3.263,-3.262,-3.2657,-3.2656,-3.2666,-3.271,-3.2683,-3.2717,-3.2744,-3.2702,-3.2757,-3.2752,-3.2774,-3.2775,-3.2817,-3.2768,-3.2803,-3.2812,-3.2822,-3.2838,-3.2566,-3.2821,-3.282,-3.2819,-3.2818,-3.2818,0,-3.2855,-3.2843,-3.2877,-3.2891,-3.2921,-3.2853,-3.2859,-3.2889,-3.2937,-3.2937,-3.2964,-3.3014,-3.305,-3.3021,-3.3051,-3.3091,-3.3062,-3.3101,-3.3099,-3.3099,-3.2879,-3.2856,-3.3124,-3.3124,-3.3124,-3.3124,-3.3124,-3.3124,-3.3002,-3.3087,-3.3057,-3.3139,-3.3126,-3.3178,-3.3187,-3.3196,-3.3196,-3.3255,-3.3283,-3.3263,-3.3252,-3.328,-3.331,-3.33,-3.3317,-3.3367,-3.3348,-3.3144,-3.3114,-3.3085,-3.3063,-3.3371,-3.3371,-3.3564,-3.3566,-3.3567]},{"header":{"parameterUnit":"m.s-1","parameterCategory":1,"la1":30.2991,"la2":30.254,"lo1":-89.0895,"lo2":-89.0444,"dy":0.0017,"dx":0.0017,"nx":28,"ny":28,"refTime":"2023-04-22T21:00:00:Z","depth":0,"parameterNumber":3,"parameterNumberName":"V-component_of_WINDS"},"data":[0,0,0,0,0,0,0,0,0,0,0,0,0,0,0,0,0,0,0,0,0,0,0,0,0,0,0,0,0,0,0,0,0,0,0,0,0,0,0,0,0,0,0,0,0,0,0,0,0,0,0,0,0,0,0,0,0,0,-2.9849,-2.985,0,-2.9901,-2.9901,-2.9902,-2.9858,-2.9856,-2.9855,-2.9853,-2.9902,-2.9905,-2.9908,0,0,0,0,0,0,0,0,0,0,0,0,0,-2.9709,-2.9712,-2.9849,-2.985,-2.9851,-2.9901,-2.9901,-2.9902,-2.9859,-2.9856,-2.9854,-2.9852,-2.9901,-2.9905,-2.9908,0,0,0,0,0,0,0,0,0,0,0,0,0,-2.9766,-2.9713,-2.9849,-2.9835,-2.9834,-2.9901,-2.9901,-2.9902,-2.9859,-2.9856,-2.9854,-2.9851,-2.99,-2.9904,-2.9909,-2.9991,0,0,-2.9922,-2.9924,0,0,0,0,0,0,0,0,-2.9763,-2.9771,-2.9837,-2.9836,-2.9835,-2.987,-2.987,-2.9932,-2.986,-2.985,-2.9853,-2.985,-2.9893,-2.9898,-2.9914,-2.9993,-2.9995,-2.9923,-2.9925,-2.9927,-2.9929,0,0,0,0,0,0,0,-2.9759,-2.9769,-2.987,-2.9837,-2.9837,-2.9825,-2.983,-2.9881,-2.9886,-2.985,-2.9847,-2.9854,-2.9893,-2.991,-2.9915,-2.9996,-2.9923,-2.9927,-2.9929,-2.9931,-3.0143,-3.0146,0,0,0,0,0,0,-2.9757,-2.9766,-2.9868,-2.9871,-2.9792,-2.9829,-2.9835,-2.9862,-2.9885,-2.9886,-2.9856,-2.9852,-2.9903,-2.9909,-2.9916,-3.0013,-2.9927,-2.9932,-2.9934,-3.014,-3.0144,-3.0147,0,0,0,0,0,0,-2.9754,-2.9767,-2.9866,-2.9818,-2.983,-2.9835,-2.9865,-2.9864,-2.9881,-2.989,-2.989,-2.9873,-2.9901,-2.991,-2.9972,-3.0014,-2.9934,-2.9938,-3.0137,-3.0141,-3.0145,-3.0207,0,0,0,0,0,0,-2.9751,-2.9766,-2.9798,-2.9819,-2.9832,-2.9923,-2.9868,-2.9867,-2.989,-2.9884,-2.9906,-2.9907,-2.99,-2.9966,-2.9977,-3.0019,-2.9941,-3.0133,-3.0139,-3.0144,-3.0202,-3.0213,-3.0223,0,0,0,0,0,-2.9746,-2.9813,-2.98,-2.9813,-2.9873,-2.9925,-2.9933,-2.9925,-2.9893,-2.9925,-2.993,-2.9906,-3.0008,-2.9973,-2.9985,-3.0028,-3.013,-3.0137,-3.0144,-3.0197,-3.0211,-3.0223,0,0,0,0,0,0,-2.9796,-2.9816,-2.9801,-2.9878,-2.99,-2.9918,-2.9958,-2.994,-2.9971,-2.9965,-2.9952,-2.9957,-3.0023,-3.0032,-2.9992,-3.0108,-3.0064,-3.0073,-3.01,-3.0114,-3.0125,-3.0121,-2.9945,0,0,0,0,0,-2.9816,-2.9859,-2.9873,-2.9939,-2.9951,-2.9953,-2.9975,-2.9967,-2.9989,-2.9998,-3.0008,-3.0029,-3.0066,-3.009,-3.0125,-3.0203,-3.0206,-3.0239,-3.0249,-3.0258,-3.0266,-3.0307,-3.0321,-3.0169,-3.0169,-3.0168,0,0,-2.9858,-2.9874,-2.9901,-2.9949,-2.9966,-3.0008,-2.9961,-3.0008,-3.0039,-3.0005,-3.0064,-3.0073,-3.0095,-3.0166,-3.0197,-3.0175,-3.0309,-3.0267,-3.0274,-3.0277,-3.0315,-3.033,-3.0343,-3.0173,-3.0172,-3.0172,0,0,-2.9956,-2.9973,-3.0029,-3.0047,-3.0073,-3.0073,-3.0087,-3.0107,-3.0111,-3.0171,-3.0146,-3.0182,-3.0246,-3.0263,-3.028,-3.0384,-3.0363,-3.0396,-3.0452,-3.0492,-3.0504,-3.0515,-3.0551,-3.0564,-3.0404,-3.0404,-3.0404,0,-3.0004,-3.0069,-3.006,-3.0109,-3.0131,-3.0103,-3.0159,-3.0176,-3.0211,-3.0226,-3.0201,-3.028,-3.0293,-3.0367,-3.0392,-3.0407,-3.0421,-3.0393,-3.0503,-3.0514,-3.0524,-3.0558,-3.0572,-3.0407,-3.0407,-3.0407,-3.0406,0,-3.0127,-3.0172,-3.0214,-3.025,-3.0276,-3.0328,-3.0326,-3.0353,-3.0342,-3.0345,-3.0406,-3.0421,-3.0457,-3.0474,-3.0464,-3.0546,-3.0532,-3.0505,-3.046,-3.0542,-3.0574,-3.0587,-3.0413,-3.0412,-3.041,-3.0409,0,0,-3.0258,-3.0288,-3.0304,-3.0319,-3.0346,-3.0379,-3.043,-3.0467,-3.049,-3.0515,-3.0556,-3.061,-3.0586,-3.0605,-3.0596,-3.0632,-3.0712,-3.0601,-3.0601,-3.062,-3.0802,-3.0821,-3.0836,-3.0698,-3.07,-3.0702,-3.08,0,-3.0356,-3.0445,-3.0439,-3.0522,-3.0563,-3.0537,-3.058,-3.06,-3.0604,-3.0638,-3.0641,-3.068,-3.0645,-3.0657,-3.069,-3.0695,-3.0748,-3.0688,-3.0734,-3.0736,-3.0729,-3.0853,-3.0874,-3.0965,-3.0812,-3.0814,-3.0816,0,-3.0483,-3.0514,-3.0602,-3.0621,-3.0638,-3.0678,-3.071,-3.0743,-3.0765,-3.0765,-3.0787,-3.0772,-3.0821,-3.0775,-3.0842,-3.0801,-3.082,-3.0825,-3.0828,-3.0832,-3.0781,-3.0859,-3.0994,-3.1008,-3.0835,-3.0834,-3.0832,0,-3.0569,-3.0632,-3.0692,-3.0707,-3.0731,-3.0759,-3.0771,-3.079,-3.0812,-3.084,-3.0854,-3.0887,-3.0905,-3.093,-3.0924,-3.0891,-3.0992,-3.0946,-3.0992,-3.0992,-3.1014,-3.1013,-3.1153,-3.1027,-3.1027,-3.1027,-3.1027,0,-3.0679,-3.0734,-3.0731,-3.0769,-3.0829,-3.0819,-3.0879,-3.0886,-3.0903,-3.094,-3.0919,-3.0954,-3.0944,-3.0978,-3.0974,-3.1029,-3.1037,-3.1038,-3.1036,-3.1039,-3.1039,-3.1051,-3.1044,-3.1031,-3.103,-3.1029,-3.1028,0,-3.0785,-3.0786,-3.085,-3.0868,-3.0874,-3.0917,-3.0932,-3.0966,-3.0968,-3.1015,-3.1025,-3.1028,-3.1067,-3.1064,-3.1107,-3.1104,-3.1172,-3.1163,-3.1166,-3.1163,-3.1209,-3.1205,-3.1362,-3.1382,-3.1244,-3.1245,-3.1246,0,-3.0855,-3.0897,-3.092,-3.0944,-3.0957,-3.0996,-3.1018,-3.1011,-3.1035,-3.1062,-3.1093,-3.113,-3.116,-3.1223,-3.1228,-3.1261,-3.1251,-3.1304,-3.1256,-3.1258,-3.1251,-3.1249,-3.1252,-3.1313,-3.1315,-3.1316,-3.1317,0,-3.0979,-3.0978,-3.1012,-3.1047,-3.1075,-3.1101,-3.1125,-3.1145,-3.114,-3.1168,-3.1208,-3.1231,-3.1276,-3.1312,-3.1344,-3.1353,-3.1334,-3.1332,-3.1345,-3.1349,-3.1348,-3.1348,-3.1191,-3.1329,-3.1328,-3.1327,-3.1326,-3.1326,-3.1069,-3.1104,-3.1126,-3.1165,-3.1182,-3.1205,-3.1238,-3.1244,-3.1278,-3.1315,-3.1307,-3.1352,-3.1371,-3.1411,-3.1424,-3.1458,-3.1439,-3.1457,-3.1462,-3.1466,-3.1471,-3.1343,-3.1464,-3.1464,-3.1463,-3.1463,-3.1463,0,-3.1191,-3.1204,-3.124,-3.1274,-3.1304,-3.1285,-3.131,-3.1336,-3.1377,-3.1397,-3.1426,-3.1472,-3.1507,-3.1515,-3.1548,-3.1574,-3.1566,-3.1583,-3.1581,-3.1583,-3.1487,-3.1473,-3.1589,-3.1589,-3.1589,-3.1589,-3.1589,-3.1589,-3.1258,-3.1317,-3.1318,-3.1384,-3.1396,-3.1441,-3.1457,-3.1477,-3.1493,-3.1545,-3.1575,-3.158,-3.1595,-3.1629,-3.1661,-3.1662,-3.1675,-3.1695,-3.1693,-3.1603,-3.159,-3.1578,-3.1564,-3.1698,-3.1698,-3.1786,-3.1787,-3.1787]}]]